Time,TemperatureF,DewpointF,PressureIn,WindDirection,WindDirectionDegrees,WindSpeedMPH,WindSpeedGustMPH,Humidity,HourlyPrecipIn,Conditions,Clouds,dailyrainin,SolarRadiationWatts/m^2,SoftwareType,DateUTC
2013-08-24 00:11:00,82.1,77.0,30.01,East,89,0.0,-999.0,83,-99.99,,,0.00,0,weatherlink.com 1.10,2013-08-24 04:11:00,
2013-08-24 00:26:00,81.3,76.0,30.00,East,90,0.0,-999.0,83,-99.99,,,0.00,0,weatherlink.com 1.10,2013-08-24 04:26:00,
2013-08-24 00:41:00,81.0,76.0,30.00,SE,124,0.0,-999.0,84,-99.99,,,0.00,0,weatherlink.com 1.10,2013-08-24 04:41:00,
2013-08-24 00:56:00,81.1,76.0,30.00,East,85,0.0,-999.0,84,-99.99,,,0.00,0,weatherlink.com 1.10,2013-08-24 04:56:00,
2013-08-24 01:11:00,81.2,76.0,30.00,ESE,105,0.0,-999.0,84,-99.99,,,0.00,0,weatherlink.com 1.10,2013-08-24 05:11:00,
2013-08-24 01:26:00,81.4,76.0,29.99,East,101,0.0,-999.0,84,-99.99,,,0.00,0,weatherlink.com 1.10,2013-08-24 05:26:00,
2013-08-24 01:41:00,81.8,77.0,29.99,SE,124,0.0,-999.0,84,-99.99,,,0.00,0,weatherlink.com 1.10,2013-08-24 05:41:00,
2013-08-24 01:56:00,81.9,77.0,30.00,ENE,78,0.0,-999.0,84,-99.99,,,0.00,0,weatherlink.com 1.10,2013-08-24 05:56:00,
2013-08-24 02:11:00,81.8,76.0,29.99,East,90,2.0,-999.0,83,-99.99,,,0.00,0,weatherlink.com 1.10,2013-08-24 06:11:00,
2013-08-24 02:26:00,81.8,76.0,29.99,ESE,103,0.0,-999.0,83,-99.99,,,0.00,0,weatherlink.com 1.10,2013-08-24 06:26:00,
2013-08-24 02:41:00,81.8,76.0,29.99,ESE,105,0.0,-999.0,83,-99.99,,,0.00,0,weatherlink.com 1.10,2013-08-24 06:41:00,
2013-08-24 02:56:00,81.8,76.0,29.98,ESE,116,0.0,-999.0,83,-99.99,,,0.00,0,weatherlink.com 1.10,2013-08-24 06:56:00,
2013-08-24 03:11:00,81.8,76.0,29.98,ESE,116,0.0,-999.0,83,-99.99,,,0.00,0,weatherlink.com 1.10,2013-08-24 07:11:00,
2013-08-24 03:26:00,81.8,77.0,29.98,ESE,119,0.0,-999.0,84,-99.99,,,0.00,0,weatherlink.com 1.10,2013-08-24 07:26:00,
2013-08-24 03:41:00,81.5,76.0,29.98,ESE,120,0.0,-999.0,84,-99.99,,,0.00,0,weatherlink.com 1.10,2013-08-24 07:41:00,
2013-08-24 03:56:00,81.3,76.0,29.97,ESE,120,0.0,-999.0,84,-99.99,,,0.00,0,weatherlink.com 1.10,2013-08-24 07:56:00,
2013-08-24 04:11:00,81.1,76.0,29.97,ESE,120,0.0,-999.0,85,-99.99,,,0.00,0,weatherlink.com 1.10,2013-08-24 08:11:00,
2013-08-24 04:26:00,80.8,76.0,29.97,ESE,120,0.0,-999.0,85,-99.99,,,0.00,0,weatherlink.com 1.10,2013-08-24 08:26:00,
2013-08-24 04:41:00,80.7,76.0,29.96,ESE,120,0.0,-999.0,85,-99.99,,,0.00,0,weatherlink.com 1.10,2013-08-24 08:41:00,
2013-08-24 04:56:00,80.7,76.0,29.97,ESE,120,0.0,-999.0,86,-99.99,,,0.00,0,weatherlink.com 1.10,2013-08-24 08:56:00,
2013-08-24 05:11:00,80.6,76.0,29.97,ESE,121,0.0,-999.0,86,-99.99,,,0.00,0,weatherlink.com 1.10,2013-08-24 09:11:00,
2013-08-24 05:26:00,80.5,76.0,29.97,ESE,121,0.0,-999.0,86,-99.99,,,0.00,0,weatherlink.com 1.10,2013-08-24 09:26:00,
2013-08-24 05:41:00,80.5,76.0,29.98,ESE,121,0.0,-999.0,86,-99.99,,,0.00,0,weatherlink.com 1.10,2013-08-24 09:41:00,
2013-08-24 05:57:00,80.3,76.0,29.97,ESE,121,0.0,-999.0,86,-99.99,,,0.00,0,weatherlink.com 1.10,2013-08-24 09:57:00,
2013-08-24 06:12:00,80.2,76.0,29.98,ESE,121,0.0,-999.0,86,-99.99,,,0.00,0,weatherlink.com 1.10,2013-08-24 10:12:00,
2013-08-24 06:27:00,80.0,76.0,29.99,ESE,121,0.0,-999.0,86,-99.99,,,0.00,0,weatherlink.com 1.10,2013-08-24 10:27:00,
2013-08-24 06:42:00,79.8,75.0,29.99,ESE,121,0.0,-999.0,86,-99.99,,,0.00,0,weatherlink.com 1.10,2013-08-24 10:42:00,
2013-08-24 06:57:00,79.7,75.0,30.00,ESE,121,0.0,-999.0,86,-99.99,,,0.00,5,weatherlink.com 1.10,2013-08-24 10:57:00,
2013-08-24 07:12:00,79.4,75.0,30.01,ENE,66,0.0,-999.0,87,-99.99,,,0.00,21,weatherlink.com 1.10,2013-08-24 11:12:00,
2013-08-24 07:27:00,79.4,76.0,30.02,ENE,61,0.0,-999.0,88,-99.99,,,0.00,53,weatherlink.com 1.10,2013-08-24 11:27:00,
2013-08-24 07:42:00,80.0,77.0,30.03,ENE,61,0.0,-999.0,89,-99.99,,,0.00,97,weatherlink.com 1.10,2013-08-24 11:42:00,
2013-08-24 07:57:00,80.5,77.0,30.03,ENE,61,0.0,-999.0,90,-99.99,,,0.00,51,weatherlink.com 1.10,2013-08-24 11:57:00,
2013-08-24 08:12:00,81.3,79.0,30.03,ENE,61,0.0,-999.0,91,-99.99,,,0.00,137,weatherlink.com 1.10,2013-08-24 12:12:00,
2013-08-24 08:27:00,82.6,78.0,30.04,East,88,0.0,-999.0,87,-99.99,,,0.00,271,weatherlink.com 1.10,2013-08-24 12:27:00,
2013-08-24 08:42:00,83.6,79.0,30.04,SE,127,0.0,-999.0,85,-99.99,,,0.00,123,weatherlink.com 1.10,2013-08-24 12:42:00,
2013-08-24 08:57:00,84.1,78.0,30.04,SE,126,0.0,-999.0,82,-99.99,,,0.00,362,weatherlink.com 1.10,2013-08-24 12:57:00,
2013-08-24 09:12:00,85.1,78.0,30.05,SE,128,1.0,-999.0,80,-99.99,,,0.00,441,weatherlink.com 1.10,2013-08-24 13:12:00,
2013-08-24 09:27:00,85.7,78.0,30.05,SE,138,0.0,-999.0,78,-99.99,,,0.00,376,weatherlink.com 1.10,2013-08-24 13:27:00,
2013-08-24 09:42:00,86.1,78.0,30.05,East,84,0.0,-999.0,77,-99.99,,,0.00,547,weatherlink.com 1.10,2013-08-24 13:42:00,
2013-08-24 09:57:00,86.9,78.0,30.06,East,94,0.0,-999.0,75,-99.99,,,0.00,592,weatherlink.com 1.10,2013-08-24 13:57:00,
2013-08-24 10:12:00,87.0,78.0,30.06,ESE,103,1.0,-999.0,75,-99.99,,,0.00,171,weatherlink.com 1.10,2013-08-24 14:12:00,
2013-08-24 10:27:00,87.5,78.0,30.07,East,95,0.0,-999.0,74,-99.99,,,0.00,190,weatherlink.com 1.10,2013-08-24 14:27:00,
2013-08-24 10:42:00,87.6,79.0,30.07,East,80,0.0,-999.0,75,-99.99,,,0.00,877,weatherlink.com 1.10,2013-08-24 14:42:00,
2013-08-24 10:57:00,88.5,78.0,30.07,ESE,102,4.0,-999.0,71,-99.99,,,0.00,826,weatherlink.com 1.10,2013-08-24 14:57:00,
2013-08-24 11:12:00,89.6,78.0,30.07,SE,129,2.0,-999.0,69,-99.99,,,0.00,812,weatherlink.com 1.10,2013-08-24 15:12:00,
2013-08-24 11:27:00,88.6,77.0,30.07,East,99,0.0,-999.0,69,-99.99,,,0.00,791,weatherlink.com 1.10,2013-08-24 15:27:00,
2013-08-24 11:42:00,89.6,76.0,30.07,SE,138,1.0,-999.0,65,-99.99,,,0.00,789,weatherlink.com 1.10,2013-08-24 15:42:00,
2013-08-24 11:58:00,90.4,78.0,30.06,East,82,4.0,-999.0,66,-99.99,,,0.00,828,weatherlink.com 1.10,2013-08-24 15:58:00,
2013-08-24 12:13:00,91.0,79.0,30.06,East,87,0.0,-999.0,67,-99.99,,,0.00,846,weatherlink.com 1.10,2013-08-24 16:13:00,
2013-08-24 12:28:00,90.9,77.0,30.06,East,88,0.0,-999.0,63,-99.99,,,0.00,846,weatherlink.com 1.10,2013-08-24 16:28:00,
2013-08-24 12:43:00,90.5,76.0,30.05,NE,55,0.0,-999.0,63,-99.99,,,0.00,896,weatherlink.com 1.10,2013-08-24 16:43:00,
2013-08-24 12:58:00,91.6,77.0,30.05,SSE,148,0.0,-999.0,62,-99.99,,,0.00,902,weatherlink.com 1.10,2013-08-24 16:58:00,
2013-08-24 13:13:00,91.1,77.0,30.05,East,86,2.0,-999.0,64,-99.99,,,0.00,916,weatherlink.com 1.10,2013-08-24 17:13:00,
2013-08-24 13:28:00,89.8,77.0,30.05,ESE,104,6.0,-999.0,67,-99.99,,,0.00,900,weatherlink.com 1.10,2013-08-24 17:28:00,
2013-08-24 13:43:00,90.3,78.0,30.05,ENE,65,3.0,-999.0,67,-99.99,,,0.00,870,weatherlink.com 1.10,2013-08-24 17:43:00,
2013-08-24 13:58:00,90.5,78.0,30.05,ESE,119,4.0,-999.0,66,-99.99,,,0.00,904,weatherlink.com 1.10,2013-08-24 17:58:00,
2013-08-24 14:13:00,90.8,78.0,30.04,ENE,78,3.0,-999.0,67,-99.99,,,0.00,896,weatherlink.com 1.10,2013-08-24 18:13:00,
2013-08-24 14:28:00,89.7,77.0,30.04,ENE,72,3.0,-999.0,67,-99.99,,,0.00,826,weatherlink.com 1.10,2013-08-24 18:28:00,
2013-08-24 14:43:00,91.0,78.0,30.04,ESE,118,0.0,-999.0,66,-99.99,,,0.00,854,weatherlink.com 1.10,2013-08-24 18:43:00,
2013-08-24 14:58:00,89.9,79.0,30.03,ENE,62,1.0,-999.0,70,-99.99,,,0.00,650,weatherlink.com 1.10,2013-08-24 18:58:00,
2013-08-24 15:13:00,90.7,79.0,30.03,East,92,0.0,-999.0,68,-99.99,,,0.00,882,weatherlink.com 1.10,2013-08-24 19:13:00,
2013-08-24 15:28:00,90.7,78.0,30.03,SE,128,4.0,-999.0,67,-99.99,,,0.00,867,weatherlink.com 1.10,2013-08-24 19:28:00,
2013-08-24 15:43:00,90.9,79.0,30.02,East,94,2.0,-999.0,68,-99.99,,,0.00,847,weatherlink.com 1.10,2013-08-24 19:43:00,
2013-08-24 15:58:00,89.8,77.0,30.02,ESE,121,9.0,-999.0,67,-99.99,,,0.00,218,weatherlink.com 1.10,2013-08-24 19:58:00,
2013-08-24 16:13:00,89.8,78.0,30.01,ESE,123,5.0,-999.0,68,-99.99,,,0.00,283,weatherlink.com 1.10,2013-08-24 20:13:00,
2013-08-24 16:28:00,88.1,77.0,30.01,East,94,1.0,-999.0,70,-99.99,,,0.00,111,weatherlink.com 1.10,2013-08-24 20:28:00,
2013-08-24 16:43:00,87.0,77.0,30.01,ESE,104,0.0,-999.0,71,-99.99,,,0.00,114,weatherlink.com 1.10,2013-08-24 20:43:00,
2013-08-24 16:58:00,86.7,77.0,30.01,East,83,0.0,-999.0,72,-99.99,,,0.00,116,weatherlink.com 1.10,2013-08-24 20:58:00,
2013-08-24 17:13:00,86.3,77.0,30.01,East,86,3.0,-999.0,73,-99.99,,,0.00,109,weatherlink.com 1.10,2013-08-24 21:13:00,
2013-08-24 17:28:00,85.9,77.0,30.02,East,86,0.0,-999.0,74,-99.99,,,0.00,91,weatherlink.com 1.10,2013-08-24 21:28:00,
2013-08-24 17:43:00,85.7,76.0,30.02,ENE,75,5.0,-999.0,73,-99.99,,,0.00,76,weatherlink.com 1.10,2013-08-24 21:43:00,
2013-08-24 17:58:00,85.6,77.0,30.02,ENE,76,6.0,-999.0,75,-99.99,,,0.00,60,weatherlink.com 1.10,2013-08-24 21:58:00,
2013-08-24 18:13:00,85.0,77.0,30.02,East,94,2.0,-999.0,76,-99.99,,,0.00,40,weatherlink.com 1.10,2013-08-24 22:13:00,
2013-08-24 18:28:00,84.5,76.0,30.02,East,79,2.0,-999.0,75,-99.99,,,0.00,26,weatherlink.com 1.10,2013-08-24 22:28:00,
2013-08-24 18:43:00,84.4,76.0,30.03,ESE,103,0.0,-999.0,76,-99.99,,,0.00,18,weatherlink.com 1.10,2013-08-24 22:43:00,
2013-08-24 18:58:00,84.4,76.0,30.02,East,82,0.0,-999.0,76,-99.99,,,0.00,12,weatherlink.com 1.10,2013-08-24 22:58:00,
2013-08-24 19:13:00,84.3,76.0,30.03,East,86,0.0,-999.0,77,-99.99,,,0.00,9,weatherlink.com 1.10,2013-08-24 23:13:00,
2013-08-24 19:28:00,84.2,76.0,30.04,East,80,0.0,-999.0,76,-99.99,,,0.00,5,weatherlink.com 1.10,2013-08-24 23:28:00,
2013-08-24 19:43:00,84.2,76.0,30.05,ESE,107,0.0,-999.0,77,-99.99,,,0.00,0,weatherlink.com 1.10,2013-08-24 23:43:00,
2013-08-24 19:58:00,84.2,76.0,30.05,ENE,78,0.0,-999.0,77,-99.99,,,0.00,0,weatherlink.com 1.10,2013-08-24 23:58:00,
2013-08-24 20:13:00,84.2,77.0,30.05,East,84,2.0,-999.0,78,-99.99,,,0.00,0,weatherlink.com 1.10,2013-08-25 00:13:00,
2013-08-24 20:28:00,84.1,77.0,30.06,ENE,69,4.0,-999.0,78,-99.99,,,0.00,0,weatherlink.com 1.10,2013-08-25 00:28:00,
2013-08-24 20:43:00,84.0,76.0,30.06,East,84,0.0,-999.0,77,-99.99,,,0.00,0,weatherlink.com 1.10,2013-08-25 00:43:00,
2013-08-24 20:58:00,84.0,76.0,30.06,East,96,2.0,-999.0,77,-99.99,,,0.00,0,weatherlink.com 1.10,2013-08-25 00:58:00,
2013-08-24 21:13:00,83.7,76.0,30.07,East,97,0.0,-999.0,77,-99.99,,,0.00,0,weatherlink.com 1.10,2013-08-25 01:13:00,
2013-08-24 21:28:00,83.6,76.0,30.07,ENE,60,0.0,-999.0,78,-99.99,,,0.00,0,weatherlink.com 1.10,2013-08-25 01:28:00,
2013-08-24 21:43:00,83.6,76.0,30.07,ENE,78,0.0,-999.0,78,-99.99,,,0.00,0,weatherlink.com 1.10,2013-08-25 01:43:00,
2013-08-24 21:58:00,83.8,76.0,30.08,ENE,78,0.0,-999.0,78,-99.99,,,0.00,0,weatherlink.com 1.10,2013-08-25 01:58:00,
2013-08-24 22:13:00,83.7,77.0,30.09,NE,54,0.0,-999.0,79,-99.99,,,0.00,0,weatherlink.com 1.10,2013-08-25 02:13:00,
2013-08-24 22:28:00,83.4,76.0,30.09,ENE,73,0.0,-999.0,77,-99.99,,,0.00,0,weatherlink.com 1.10,2013-08-25 02:28:00,
2013-08-24 22:43:00,83.5,76.0,30.09,ENE,78,0.0,-999.0,77,-99.99,,,0.00,0,weatherlink.com 1.10,2013-08-25 02:43:00,
2013-08-24 22:58:00,83.6,76.0,30.10,ENE,67,0.0,-999.0,78,-99.99,,,0.00,0,weatherlink.com 1.10,2013-08-25 02:58:00,
2013-08-24 23:13:00,83.6,77.0,30.10,ENE,71,0.0,-999.0,79,-99.99,,,0.00,0,weatherlink.com 1.10,2013-08-25 03:13:00,
2013-08-24 23:29:00,83.5,76.0,30.09,ENE,65,1.0,-999.0,79,-99.99,,,0.00,0,weatherlink.com 1.10,2013-08-25 03:29:00,
2013-08-24 23:43:00,83.6,77.0,30.09,ENE,64,0.0,-999.0,79,-99.99,,,0.00,0,weatherlink.com 1.10,2013-08-25 03:43:00,
2013-08-24 23:58:00,83.3,76.0,30.07,ENE,69,0.0,-999.0,78,-99.99,,,0.00,0,weatherlink.com 1.10,2013-08-25 03:58:00,